Location: Hope
(40.9110°N, 74.9680°W)
Time: 01:36:14
(UTC-04:00)

Envisat - Pass Details

Date: 01 February 2019
Orbit: 764 x 766 km, 98.1° (Epoch: 15 October)

Event Time Altitude Azimuth Distance (km) Brightness Sun altitude
Rises 18:55:33 0° 173° (S) 3,217 6.2 -18.8°
Reaches altitude 10° 18:57:52 10° 176° (S) 2,295 5.5 -19.3°
Maximum altitude 19:02:54 67° 259° (WSW) 832 3.3 -20.2°
Drops below altitude 10° 19:07:58 10° 342° (NNW) 2,310 5.6 -21.2°
Sets 19:10:18 0° 345° (NNW) 3,240 6.4 -21.6°
